Location: Springfield
(37.2150°N, 93.2980°W)
Time: 02:44:13
(UTC-05:00)

Hubble Space Telescope - Visible Passes

Search period start: 21 April 2018 00:00
Search period end: 01 May 2018 00:00
Orbit: 537 x 541 km, 28.5° (Epoch: 20 April)

Date Brightness Start Highest point End Pass type
(mag) Time Alt. Az. Time Alt. Az. Time Alt. Az.
26 Apr 3.0 21:54:57 10° SW 21:55:59 15° SSW 21:55:59 15° SSW visible
27 Apr 2.5 21:44:27 10° SW 21:46:36 20° SSW 21:46:36 20° SSW visible
28 Apr 2.1 21:33:59 10° SW 21:37:05 23° S 21:37:05 23° S visible
29 Apr 2.0 21:23:35 10° SW 21:26:56 24° S 21:27:29 23° SSE visible
30 Apr 2.1 21:13:11 10° SW 21:16:33 24° S 21:17:48 21° SSE visible
